User: anonymous   Login
Location: Newark
(49.5647°N, 8.2922°E)
Time: 23:36:54
(UTC+00:00)
Language:

Transit 2A - Orbit

View from above orbital plane
View from above orbital plane
View from above satellite
View from above satellite

Ground track
Ground track

The orbit data is extracted from the following two-line orbital elements,

1    45U 60007A   20054.20169683 -.00000011 +00000-0 +24111-4 0  9994
2    45 066.6960 324.6449 0251123 038.1727 323.6862 14.33667572049319
Epoch (UTC): 23 February 2020 04:50:26
Eccentricity: 0.0251123
inclination: 66.6960°
perigee height: 600 km
apogee height: 959 km
right ascension of ascending node: 324.6449°
argument of perigee: 38.1727°
revolutions per day: 14.33667572
mean anomaly at epoch: 323.6862°
orbit number at epoch: 4931

The dashed part of the orbit path shows where the satellite is in the earth's shadow,  

DLR